Time,TemperatureF,DewpointF,PressureIn,WindDirection,WindDirectionDegrees,WindSpeedMPH,WindSpeedGustMPH,Humidity,HourlyPrecipIn,Conditions,Clouds,dailyrainin,SoftwareType,DateUTC
2013-08-30 00:10:00,72.2,56.0,25.73,ENE,67,3.0,4.0,58,0.00,,,0.00,weatherlink.com 1.10,2013-08-30 06:10:00,
2013-08-30 00:25:00,71.9,57.0,25.73,ENE,69,2.0,3.0,59,0.00,,,0.00,weatherlink.com 1.10,2013-08-30 06:25:00,
2013-08-30 00:40:00,72.0,57.0,25.73,ENE,73,2.0,3.0,59,0.00,,,0.00,weatherlink.com 1.10,2013-08-30 06:40:00,
2013-08-30 00:55:00,71.6,56.0,25.73,NE,41,1.0,3.0,59,0.00,,,0.00,weatherlink.com 1.10,2013-08-30 06:55:00,
2013-08-30 01:10:00,71.3,57.0,25.73,NNE,21,1.0,3.0,60,0.00,,,0.00,weatherlink.com 1.10,2013-08-30 07:10:00,
2013-08-30 01:25:00,71.0,56.0,25.73,NNE,26,2.0,2.0,60,0.00,,,0.00,weatherlink.com 1.10,2013-08-30 07:25:00,
2013-08-30 01:40:00,70.4,56.0,25.73,NNE,14,3.0,3.0,61,0.00,,,0.00,weatherlink.com 1.10,2013-08-30 07:40:00,
2013-08-30 01:55:00,70.2,56.0,25.73,NNE,23,2.0,3.0,61,0.00,,,0.00,weatherlink.com 1.10,2013-08-30 07:55:00,
2013-08-30 02:10:00,69.8,57.0,25.73,North,352,3.0,3.0,63,0.00,,,0.00,weatherlink.com 1.10,2013-08-30 08:10:00,
2013-08-30 02:40:00,67.8,56.0,25.73,NNE,33,5.0,5.0,65,0.00,,,0.00,weatherlink.com 1.10,2013-08-30 08:40:00,
2013-08-30 02:55:00,66.8,56.0,25.73,North,1,2.0,5.0,68,0.00,,,0.00,weatherlink.com 1.10,2013-08-30 08:55:00,
2013-08-30 03:10:00,67.5,56.0,25.73,NNW,342,1.0,4.0,67,0.00,,,0.00,weatherlink.com 1.10,2013-08-30 09:10:00,
2013-08-30 03:25:00,66.9,56.0,25.74,NNW,345,3.0,5.0,68,0.00,,,0.00,weatherlink.com 1.10,2013-08-30 09:25:00,
2013-08-30 03:40:00,67.1,56.0,25.74,North,11,5.0,5.0,67,0.00,,,0.00,weatherlink.com 1.10,2013-08-30 09:40:00,
2013-08-30 03:55:00,66.3,55.0,25.73,North,356,1.0,3.0,68,0.00,,,0.00,weatherlink.com 1.10,2013-08-30 09:55:00,
2013-08-30 04:10:00,64.3,55.0,25.74,NNW,329,3.0,4.0,73,0.00,,,0.00,weatherlink.com 1.10,2013-08-30 10:10:00,
2013-08-30 04:25:00,65.1,56.0,25.74,North,349,4.0,5.0,72,0.00,,,0.00,weatherlink.com 1.10,2013-08-30 10:25:00,
2013-08-30 04:40:00,64.1,55.0,25.73,NNW,328,0.0,5.0,73,0.00,,,0.00,weatherlink.com 1.10,2013-08-30 10:40:00,
2013-08-30 04:55:00,64.4,57.0,25.73,North,354,3.0,4.0,76,0.00,,,0.00,weatherlink.com 1.10,2013-08-30 10:55:00,
2013-08-30 05:10:00,65.2,56.0,25.73,NNW,344,4.0,6.0,73,0.00,,,0.00,weatherlink.com 1.10,2013-08-30 11:10:00,
2013-08-30 05:25:00,63.4,56.0,25.73,NW,324,2.0,4.0,76,0.00,,,0.00,weatherlink.com 1.10,2013-08-30 11:25:00,
2013-08-30 05:40:00,62.5,56.0,25.74,NW,304,2.0,2.0,78,0.00,,,0.00,weatherlink.com 1.10,2013-08-30 11:40:00,
2013-08-30 05:55:00,63.5,57.0,25.74,North,8,5.0,5.0,79,0.00,,,0.00,weatherlink.com 1.10,2013-08-30 11:55:00,
2013-08-30 06:10:00,64.2,58.0,25.75,NNW,340,4.0,6.0,80,0.00,,,0.00,weatherlink.com 1.10,2013-08-30 12:10:00,
2013-08-30 06:25:00,64.5,58.0,25.75,North,354,3.0,6.0,79,0.00,,,0.00,weatherlink.com 1.10,2013-08-30 12:25:00,
2013-08-30 06:40:00,64.3,57.0,25.75,NNW,344,4.0,7.0,78,0.00,,,0.00,weatherlink.com 1.10,2013-08-30 12:40:00,
2013-08-30 06:55:00,65.0,58.0,25.75,NNW,340,4.0,5.0,77,0.00,,,0.00,weatherlink.com 1.10,2013-08-30 12:55:00,
2013-08-30 07:10:00,66.4,59.0,25.75,NNW,338,3.0,5.0,76,0.00,,,0.00,weatherlink.com 1.10,2013-08-30 13:10:00,
2013-08-30 07:25:00,68.5,60.0,25.76,NNW,340,3.0,7.0,73,0.00,,,0.00,weatherlink.com 1.10,2013-08-30 13:25:00,
2013-08-30 07:40:00,70.3,60.0,25.76,NNE,25,1.0,6.0,71,0.00,,,0.00,weatherlink.com 1.10,2013-08-30 13:40:00,
2013-08-30 07:55:00,73.8,62.0,25.76,ENE,77,2.0,2.0,67,0.00,,,0.00,weatherlink.com 1.10,2013-08-30 13:55:00,
2013-08-30 08:10:00,74.3,63.0,25.76,East,79,6.0,6.0,67,0.00,,,0.00,weatherlink.com 1.10,2013-08-30 14:10:00,
2013-08-30 08:25:00,74.8,63.0,25.75,East,80,8.0,8.0,66,0.00,,,0.00,weatherlink.com 1.10,2013-08-30 14:25:00,
2013-08-30 08:40:00,76.1,63.0,25.75,ESE,102,6.0,11.0,63,0.00,,,0.00,weatherlink.com 1.10,2013-08-30 14:40:00,
2013-08-30 08:56:00,77.2,63.0,25.76,East,98,7.0,9.0,61,0.00,,,0.00,weatherlink.com 1.10,2013-08-30 14:56:00,
2013-08-30 09:11:00,78.0,62.0,25.76,East,94,8.0,11.0,59,0.00,,,0.00,weatherlink.com 1.10,2013-08-30 15:11:00,
2013-08-30 09:26:00,79.3,63.0,25.75,East,84,7.0,13.0,57,0.00,,,0.00,weatherlink.com 1.10,2013-08-30 15:26:00,
2013-08-30 09:41:00,80.3,63.0,25.75,East,84,6.0,12.0,55,0.00,,,0.00,weatherlink.com 1.10,2013-08-30 15:41:00,
2013-08-30 09:56:00,81.7,62.0,25.75,ESE,110,6.0,12.0,52,0.00,,,0.00,weatherlink.com 1.10,2013-08-30 15:56:00,
2013-08-30 10:11:00,83.4,62.0,25.75,ESE,118,6.0,11.0,48,0.00,,,0.00,weatherlink.com 1.10,2013-08-30 16:11:00,
2013-08-30 10:26:00,84.4,62.0,25.75,ESE,115,11.0,13.0,47,0.00,,,0.00,weatherlink.com 1.10,2013-08-30 16:26:00,
2013-08-30 10:41:00,85.6,61.0,25.75,SE,125,8.0,13.0,44,0.00,,,0.00,weatherlink.com 1.10,2013-08-30 16:41:00,
2013-08-30 10:56:00,86.2,61.0,25.75,ESE,111,10.0,16.0,43,0.00,,,0.00,weatherlink.com 1.10,2013-08-30 16:56:00,
2013-08-30 11:11:00,87.7,60.0,25.75,ESE,103,8.0,14.0,39,0.00,,,0.00,weatherlink.com 1.10,2013-08-30 17:11:00,
2013-08-30 11:26:00,88.3,59.0,25.75,ESE,102,7.0,14.0,37,0.00,,,0.00,weatherlink.com 1.10,2013-08-30 17:26:00,
2013-08-30 11:41:00,89.0,59.0,25.74,SW,228,3.0,14.0,36,0.00,,,0.00,weatherlink.com 1.10,2013-08-30 17:41:00,
2013-08-30 11:56:00,90.0,60.0,25.74,ENE,70,13.0,14.0,36,0.00,,,0.00,weatherlink.com 1.10,2013-08-30 17:56:00,
2013-08-30 12:11:00,90.2,60.0,25.74,SSE,155,8.0,11.0,36,0.00,,,0.00,weatherlink.com 1.10,2013-08-30 18:11:00,
2013-08-30 12:26:00,91.4,60.0,25.73,South,172,7.0,16.0,35,0.00,,,0.00,weatherlink.com 1.10,2013-08-30 18:26:00,
2013-08-30 12:41:00,91.1,57.0,25.73,ESE,115,5.0,14.0,32,0.00,,,0.00,weatherlink.com 1.10,2013-08-30 18:41:00,
2013-08-30 12:56:00,91.6,58.0,25.72,SE,143,5.0,13.0,32,0.00,,,0.00,weatherlink.com 1.10,2013-08-30 18:56:00,
2013-08-30 13:11:00,92.1,59.0,25.72,SE,125,10.0,14.0,33,0.00,,,0.00,weatherlink.com 1.10,2013-08-30 19:11:00,
2013-08-30 13:26:00,92.4,59.0,25.71,ESE,106,8.0,11.0,32,0.00,,,0.00,weatherlink.com 1.10,2013-08-30 19:26:00,
2013-08-30 13:41:00,93.9,59.0,25.71,SE,135,3.0,20.0,31,0.00,,,0.00,weatherlink.com 1.10,2013-08-30 19:41:00,
2013-08-30 13:56:00,93.8,57.0,25.70,ESE,113,12.0,19.0,29,0.00,,,0.00,weatherlink.com 1.10,2013-08-30 19:56:00,
2013-08-30 14:12:00,93.2,56.0,25.69,WSW,240,4.0,18.0,28,0.00,,,0.00,weatherlink.com 1.10,2013-08-30 20:12:00,
2013-08-30 14:27:00,94.0,56.0,25.68,SSW,208,11.0,18.0,28,0.00,,,0.00,weatherlink.com 1.10,2013-08-30 20:27:00,
2013-08-30 14:42:00,94.9,58.0,25.67,East,81,7.0,14.0,29,0.00,,,0.00,weatherlink.com 1.10,2013-08-30 20:42:00,
2013-08-30 14:57:00,94.3,57.0,25.66,ESE,122,10.0,14.0,29,0.00,,,0.00,weatherlink.com 1.10,2013-08-30 20:57:00,
2013-08-30 15:12:00,95.3,57.0,25.66,South,181,8.0,18.0,28,0.00,,,0.00,weatherlink.com 1.10,2013-08-30 21:12:00,
2013-08-30 15:27:00,95.7,57.0,25.65,South,179,13.0,18.0,27,0.00,,,0.00,weatherlink.com 1.10,2013-08-30 21:27:00,
2013-08-30 15:57:00,91.6,56.0,25.64,South,179,11.0,20.0,30,0.00,,,0.00,weatherlink.com 1.10,2013-08-30 21:57:00,
2013-08-30 16:12:00,88.6,61.0,25.64,South,177,9.0,17.0,40,0.00,,,0.00,weatherlink.com 1.10,2013-08-30 22:12:00,
2013-08-30 16:27:00,86.0,59.0,25.65,SW,229,8.0,12.0,40,0.00,,,0.00,weatherlink.com 1.10,2013-08-30 22:27:00,
2013-08-30 16:42:00,86.0,55.0,25.66,WSW,246,6.0,10.0,35,0.00,,,0.00,weatherlink.com 1.10,2013-08-30 22:42:00,
2013-08-30 16:57:00,81.7,58.0,25.66,NW,310,20.0,31.0,45,0.01,,,0.01,weatherlink.com 1.10,2013-08-30 22:57:00,
2013-08-30 17:12:00,74.8,57.0,25.68,NW,304,32.0,35.0,55,0.01,,,0.01,weatherlink.com 1.10,2013-08-30 23:12:00,
2013-08-30 17:27:00,72.8,57.0,25.69,WNW,302,24.0,48.0,58,0.01,,,0.01,weatherlink.com 1.10,2013-08-30 23:27:00,
2013-08-30 17:42:00,71.4,57.0,25.70,NW,322,38.0,39.0,60,0.01,,,0.01,weatherlink.com 1.10,2013-08-30 23:42:00,
2013-08-30 17:57:00,70.1,58.0,25.68,North,356,19.0,29.0,66,0.01,,,0.02,weatherlink.com 1.10,2013-08-30 23:57:00,
2013-08-30 18:12:00,69.7,58.0,25.71,NW,319,18.0,30.0,66,0.01,,,0.02,weatherlink.com 1.10,2013-08-31 00:12:00,
2013-08-30 18:27:00,70.4,58.0,25.70,NW,325,15.0,23.0,65,0.02,,,0.03,weatherlink.com 1.10,2013-08-31 00:27:00,
2013-08-30 18:42:00,68.4,58.0,25.68,WNW,294,9.0,25.0,70,0.03,,,0.04,weatherlink.com 1.10,2013-08-31 00:42:00,
2013-08-30 18:57:00,71.8,56.0,25.63,WSW,245,10.0,17.0,58,0.02,,,0.04,weatherlink.com 1.10,2013-08-31 00:57:00,
2013-08-30 19:12:00,75.3,56.0,25.64,WSW,257,11.0,20.0,51,0.02,,,0.04,weatherlink.com 1.10,2013-08-31 01:12:00,
2013-08-30 19:27:00,75.6,56.0,25.64,West,271,8.0,10.0,51,0.01,,,0.04,weatherlink.com 1.10,2013-08-31 01:27:00,
2013-08-30 19:42:00,72.6,60.0,25.65,NW,314,6.0,8.0,64,0.00,,,0.04,weatherlink.com 1.10,2013-08-31 01:42:00,
2013-08-30 19:57:00,71.5,59.0,25.65,WSW,246,5.0,7.0,66,0.00,,,0.04,weatherlink.com 1.10,2013-08-31 01:57:00,
2013-08-30 20:12:00,71.2,59.0,25.65,West,281,4.0,10.0,66,0.00,,,0.04,weatherlink.com 1.10,2013-08-31 02:12:00,
2013-08-30 20:27:00,72.4,59.0,25.65,NW,306,4.0,6.0,62,0.00,,,0.04,weatherlink.com 1.10,2013-08-31 02:27:00,
2013-08-30 20:42:00,72.3,58.0,25.65,SSE,166,10.0,13.0,60,0.00,,,0.04,weatherlink.com 1.10,2013-08-31 02:42:00,
2013-08-30 20:57:00,71.5,58.0,25.66,SSE,161,11.0,13.0,62,0.00,,,0.04,weatherlink.com 1.10,2013-08-31 02:57:00,
2013-08-30 21:12:00,69.5,59.0,25.67,SSE,163,9.0,18.0,69,0.00,,,0.04,weatherlink.com 1.10,2013-08-31 03:12:00,
2013-08-30 21:27:00,69.1,59.0,25.70,East,80,16.0,23.0,70,0.01,,,0.05,weatherlink.com 1.10,2013-08-31 03:27:00,
2013-08-30 21:42:00,70.3,58.0,25.71,ENE,77,11.0,13.0,65,0.01,,,0.05,weatherlink.com 1.10,2013-08-31 03:42:00,
2013-08-30 21:57:00,69.4,59.0,25.71,ENE,75,9.0,12.0,69,0.01,,,0.05,weatherlink.com 1.10,2013-08-31 03:57:00,
2013-08-30 22:12:00,68.0,59.0,25.71,ENE,70,8.0,12.0,74,0.01,,,0.05,weatherlink.com 1.10,2013-08-31 04:12:00,
2013-08-30 22:27:00,67.7,60.0,25.71,East,86,7.0,14.0,76,0.00,,,0.05,weatherlink.com 1.10,2013-08-31 04:27:00,
2013-08-30 22:42:00,67.3,60.0,25.71,ESE,102,8.0,12.0,76,0.00,,,0.05,weatherlink.com 1.10,2013-08-31 04:42:00,
2013-08-30 22:57:00,66.9,59.0,25.71,ESE,110,12.0,13.0,77,0.00,,,0.05,weatherlink.com 1.10,2013-08-31 04:57:00,
2013-08-30 23:12:00,66.6,59.0,25.70,SE,125,10.0,11.0,77,0.00,,,0.05,weatherlink.com 1.10,2013-08-31 05:12:00,
2013-08-30 23:27:00,65.7,59.0,25.71,ESE,107,8.0,10.0,80,0.00,,,0.05,weatherlink.com 1.10,2013-08-31 05:27:00,
2013-08-30 23:42:00,65.3,59.0,25.70,ESE,121,13.0,16.0,81,0.00,,,0.05,weatherlink.com 1.10,2013-08-31 05:42:00,
2013-08-30 23:57:00,64.8,59.0,25.70,SE,135,7.0,13.0,82,0.00,,,0.05,weatherlink.com 1.10,2013-08-31 05:57:00,